TimeEDT,TemperatureF,Dew PointF,Humidity,Sea Level PressureIn,VisibilityMPH,Wind Direction,Wind SpeedMPH,Gust SpeedMPH,PrecipitationIn,Events,Conditions,WindDirDegrees,DateUTC
12:00 AM,55.9,52.3,88,30.10,-9999.0,South,2.3,-,N/A,,Unknown,190,2012-10-27 04:00:00
1:00 AM,55.6,52.2,88,30.09,-9999.0,SSW,3.5,-,N/A,,Unknown,200,2012-10-27 05:00:00
2:00 AM,56,52,83,30.09,,West,1.2,,,,,260,2012-10-27 06:00:00
2:00 AM,55.6,52.3,89,30.09,-9999.0,West,1.2,-,N/A,,Unknown,260,2012-10-27 06:00:00
3:00 AM,55.6,52.5,89,30.09,-9999.0,Calm,Calm,-,N/A,,Unknown,0,2012-10-27 07:00:00
4:00 AM,55.2,52.0,89,30.06,-9999.0,NNE,3.5,-,N/A,,Unknown,20,2012-10-27 08:00:00
5:00 AM,55.0,52.2,90,30.04,-9999.0,Calm,Calm,-,N/A,,Unknown,0,2012-10-27 09:00:00
6:00 AM,54.7,52.3,92,30.07,-9999.0,North,3.5,-,N/A,,Unknown,360,2012-10-27 10:00:00
7:00 AM,54.1,51.8,92,30.09,-9999.0,NNE,4.6,-,N/A,,Unknown,30,2012-10-27 11:00:00
8:00 AM,54,52,90,30.08,,NE,2.3,,,,,40,2012-10-27 12:00:00
8:00 AM,53.6,52.0,94,30.08,-9999.0,NE,2.3,-,N/A,,Unknown,40,2012-10-27 12:00:00
10:00 AM,52.7,51.1,94,30.09,-9999.0,NE,3.5,-,N/A,,Unknown,40,2012-10-27 14:00:00
11:00 AM,53.8,52.0,94,30.08,-9999.0,NNE,3.5,-,N/A,,Unknown,20,2012-10-27 15:00:00
12:00 PM,55.2,52.2,89,30.07,-9999.0,NNE,4.6,-,N/A,,Unknown,20,2012-10-27 16:00:00
1:00 PM,56.7,52.3,85,30.04,-9999.0,NE,4.6,-,N/A,,Unknown,50,2012-10-27 17:00:00
2:00 PM,57,51,76,30.03,,NNE,4.6,,,,,20,2012-10-27 18:00:00
2:00 PM,57.4,51.4,81,30.03,-9999.0,NNE,4.6,-,N/A,,Unknown,20,2012-10-27 18:00:00
3:00 PM,56.8,49.3,76,30.01,-9999.0,North,5.8,-,N/A,,Unknown,10,2012-10-27 19:00:00
4:00 PM,57.6,48.7,72,30.00,-9999.0,NNE,4.6,-,N/A,,Unknown,20,2012-10-27 20:00:00
5:00 PM,57.7,48.7,72,30.00,-9999.0,NE,3.5,-,N/A,,Unknown,40,2012-10-27 21:00:00
6:00 PM,58.5,48.9,71,29.99,-9999.0,NNE,3.5,-,N/A,,Unknown,30,2012-10-27 22:00:00
7:00 PM,57.2,47.3,69,30.01,-9999.0,NNE,3.5,-,N/A,,Unknown,30,2012-10-27 23:00:00
8:00 PM,56,47,64,30.01,,NNE,4.6,,,,,30,2012-10-28 00:00:00
8:00 PM,56.3,47.1,71,30.01,-9999.0,NNE,4.6,-,N/A,,Unknown,30,2012-10-28 00:00:00
9:00 PM,55.6,45.5,69,30.01,-9999.0,NNE,4.6,-,N/A,,Unknown,20,2012-10-28 01:00:00
10:00 PM,55.0,45.5,70,30.01,-9999.0,NNE,3.5,-,N/A,,Unknown,30,2012-10-28 02:00:00
11:00 PM,54.0,46.2,75,30.01,-9999.0,North,3.5,-,N/A,,Unknown,10,2012-10-28 03:00:00